Flag for Canada Weather past 2 weeks in Thompson, Manitoba, Canada

Now
5 °F

Light snow. Mostly cloudy.


Feels Like: -2 °F
Forecast: N/A
Wind: 3 mph from East

Location: Thompson

Current Time: Jan 25, 2015 at 5:31:07 PM

Latest Report: Jan 25, 2015 at 5:00 PM


Visibility: 1 mi

Pressure: 29.70 "Hg

Humidity: 85%

Dew point: 1 °F

Location of ThompsonLocation

Historic Weather in Thompson — Graph

°F

Thompson temperature yesterday

Maximum temperature yesterday: -8 °F (at 3:00 PM)
Minimum temperature yesterday: -22 °F (at 8:00 AM)
Average temperature yesterday: -13 °F

Past Weeks' High & Low Weather Summary

 TemperatureHumidityPressure
High30 °F (Jan 23, 3:00 AM)100% (Jan 22, 10:00 PM)30.61 "Hg (Jan 22, 10:00 PM)
Low-38 °F (Jan 16, 4:00 AM)57% (Jan 11, 12:00 PM)29.37 "Hg (Jan 17, 3:00 AM)
Average-4 °F76%30.00 "Hg
* Reported Jan 10 4:00 PM — Jan 25 4:00 PM, Thompson, Weather by CustomWeather, © 2014

Note: Actual official high and low records may vary slightly from our data, if they occured in-between our weather recording intervals... More about our weather records

Advertising

Thompson weather history for previous 24 hours

 ConditionsComfort  
Time TempWeatherWind HumidityBarometerVisibility
4:00 PM
Jan 25
5 °FLight snow. More clouds than sun.3 mph78%29.72 "Hg1 mi
3:00 PM3 °FLight snow. Mostly cloudy.5 mph85%29.74 "Hg1 mi
2:00 PM3 °FLight snow. Mostly cloudy.3 mph78%29.79 "Hg1 mi
1:54 PM3 °FLight snow. More clouds than sun.5 mph78%29.80 "Hg2 mi
1:00 PM1 °FLight snow. Overcast.5 mph85%29.82 "Hg10 mi
12:00 PM1 °FLight snow. Overcast.5 mph78%29.85 "Hg5 mi
11:00 AM0 °FLight snow. Overcast.5 mph78%29.92 "Hg5 mi
10:00 AM0 °FFrigid.6 mph78%29.94 "Hg10 mi
9:00 AM-2 °FLight snow. Overcast.6 mph77%29.96 "Hg8 mi
8:00 AM-4 °FLight snow. Mostly cloudy.6 mph77%30.00 "Hg15 mi
7:00 AM-4 °FLight snow. Mostly cloudy.2 mph77%30.01 "Hg15 mi
6:00 AM-4 °FLight snow. Mostly cloudy.2 mph71%30.04 "Hg10 mi
5:00 AM-6 °FLight snow. Overcast.2 mph77%30.07 "Hg15 mi
3:00 AM-6 °FLight snow. Mostly cloudy.2 mph77%30.11 "Hg15 mi
2:00 AM-6 °FLight snow. Mostly cloudy.2 mph70%30.12 "Hg15 mi
1:00 AM-8 °FMostly cloudy.2 mph77%30.14 "Hg15 mi
12:00 AM-8 °FMostly cloudy.2 mph77%30.15 "Hg15 mi
11:00 PM
Jan 24
-8 °FMostly cloudy.2 mph70%30.16 "Hg15 mi
10:00 PM-9 °FPassing clouds.2 mph77%30.15 "Hg15 mi
9:00 PM-9 °FPassing clouds.2 mph77%30.14 "Hg15 mi
8:00 PM-9 °FPassing clouds.3 mph77%30.14 "Hg15 mi
7:00 PM-11 °FPassing clouds.2 mph76%30.14 "Hg15 mi
6:00 PM-11 °FPassing clouds.No wind76%30.12 "Hg15 mi
5:00 PM-8 °FPassing clouds.2 mph70%30.11 "Hg15 mi
Weather by CustomWeather, © 2014

See weather overviewHow to use our weather pages